K5GHS-1 Weather Reports


Display with metric or nautical units.
time (UTC)temp
F
wind
direction
speed
MPH
gust
MPH
rain 1hr
in
rain 24hr
in
rain mn
in
humidity
%
barometer
mb
20260509141659 73 72 0.0 0.0 0.00 0.00 0.00 88 1008.9
20260509141156 73 70 0.0 1.0 0.00 0.00 0.00 89 1009.0
20260509140653 73 68 0.0 1.0 0.00 0.00 0.00 90 1008.9
20260509140151 73 72 0.0 0.0 0.00 0.00 0.00 91 1008.8
20260509135648 73 73 0.0 0.0 0.00 0.00 0.00 92 1008.7
20260509135146 72 77 0.0 1.0 0.00 0.00 0.00 92 1008.7
20260509134642 72 62 1.0 1.0 0.00 0.00 0.00 93 1008.9
20260509134140 72 70 0.0 0.0 0.00 0.00 0.00 93 1008.7
20260509133637 71 68 0.0 0.0 0.00 0.00 0.00 94 1008.5
20260509133134 71 74 0.0 0.0 0.00 0.00 0.00 94 1008.7
20260509132632 71 72 0.0 0.0 0.00 0.00 0.00 94 1008.5
20260509132130 71 74 0.0 0.0 0.00 0.00 0.00 94 1008.8
20260509131626 71 79 0.0 0.0 0.00 0.00 0.00 94 1008.5
20260509131123 71 71 0.0 0.0 0.00 0.00 0.00 95 1008.6
20260509130619 70 71 0.0 0.0 0.00 0.00 0.00 95 1008.6
20260509130116 70 74 0.0 1.0 0.00 0.00 0.00 95 1008.6
20260509125612 70 79 0.0 1.0 0.00 0.00 0.00 95 1008.3
20260509125109 70 87 0.0 1.0 0.00 0.00 0.00 95 1008.4
20260509124605 70 76 0.0 0.0 0.00 0.00 0.00 95 1008.4
20260509124103 70 76 0.0 0.0 0.00 0.00 0.00 95 1008.7
20260509123600 70 76 0.0 0.0 0.00 0.00 0.00 95 1008.6
20260509123057 70 73 0.0 0.0 0.00 0.00 0.00 95 1008.4
20260509122553 70 72 0.0 0.0 0.00 0.00 0.00 95 1008.4
20260509122050 69 78 0.0 0.0 0.00 0.00 0.00 95 1008.4
20260509121546 69 78 0.0 0.0 0.00 0.00 0.00 95 1008.1
20260509121048 69 78 0.0 0.0 0.00 0.00 0.00 95 1008.5
20260509120542 69 81 0.0 0.0 0.00 0.00 0.00 95 1008.2
20260509120041 69 74 0.0 0.0 0.00 0.00 0.00 95 1008.2
20260509115537 69 81 0.0 1.0 0.00 0.00 0.00 95 1008.3
20260509115035 69 75 0.0 0.0 0.00 0.00 0.00 95 1008.2
20260509114533 69 83 0.0 0.0 0.00 0.00 0.00 95 1007.8
20260509114032 69 81 0.0 1.0 0.00 0.00 0.00 94 1008.0
20260509113529 69 83 0.0 0.0 0.00 0.00 0.00 94 1007.7
20260509113027 69 83 0.0 0.0 0.00 0.00 0.00 94 1007.8
20260509112523 69 83 0.0 1.0 0.00 0.00 0.00 94 1007.7
20260509112020 69 79 0.0 1.0 0.00 0.00 0.00 94 1007.6
20260509111517 69 83 0.0 1.0 0.00 0.00 0.00 94 1007.4
20260509111014 69 92 1.0 1.0 0.00 0.00 0.00 94 1007.3
20260509110511 69 88 0.0 1.0 0.00 0.00 0.00 94 1007.5
20260509110008 69 79 0.0 1.0 0.00 0.00 0.00 94 1007.2
20260509105506 69 83 0.0 0.0 0.00 0.00 0.00 94 1007.4
20260509105004 69 77 0.0 0.0 0.00 0.00 0.00 94 1007.3
20260509104500 69 89 0.0 1.0 0.00 0.00 0.00 94 1007.2
20260509103957 69 82 0.0 1.0 0.00 0.00 0.00 94 1007.2
20260509103455 69 79 0.0 1.0 0.00 0.00 0.00 94 1007.1
20260509102953 69 71 0.0 1.0 0.00 0.00 0.00 94 1007.1
20260509102450 69 85 0.0 1.0 0.00 0.00 0.00 94 1006.7
20260509101946 69 89 1.0 1.0 0.00 0.00 0.00 94 1007.0
20260509101443 69 84 0.0 1.0 0.00 0.00 0.00 94 1006.9
20260509100940 69 81 1.0 3.0 0.00 0.00 0.00 93 1006.8
20260509100437 69 85 0.0 1.0 0.00 0.00 0.00 93 1006.8
20260509095934 69 76 2.0 3.0 0.00 0.00 0.00 93 1006.7
20260509095431 69 112 2.0 2.0 0.00 0.00 0.00 93 1006.9
20260509094928 69 87 0.0 1.0 0.00 0.00 0.00 93 1006.7
20260509094424 69 92 2.0 3.0 0.00 0.00 0.00 93 1006.8
20260509093922 69 67 0.0 0.0 0.00 0.00 0.00 93 1007.0
20260509093419 69 67 0.0 1.0 0.00 0.00 0.00 93 1006.9
20260509092918 69 68 0.0 0.0 0.00 0.00 0.00 93 1006.9
20260509092415 69 69 0.0 0.0 0.00 0.00 0.00 93 1006.9
20260509091914 69 74 0.0 0.0 0.00 0.00 0.00 93 1007.0
20260509091410 69 75 0.0 0.0 0.00 0.00 0.00 93 1006.7
20260509090907 69 89 1.0 1.0 0.00 0.00 0.00 93 1006.5
20260509090404 69 78 0.0 0.0 0.00 0.00 0.00 93 1006.5
20260509085902 69 71 0.0 0.0 0.00 0.00 0.00 93 1006.2
20260509085359 69 71 1.0 5.0 0.00 0.00 0.00 93 1005.8
20260509084855 69 78 1.0 3.0 0.00 0.00 0.00 93 1006.0
20260509084352 69 80 1.0 5.0 0.00 0.00 0.00 93 1005.8
20260509083849 69 88 3.0 3.0 0.00 0.00 0.00 93 1006.2
20260509083346 69 122 3.0 3.0 0.00 0.00 0.00 93 1006.3
20260509082843 69 76 1.0 5.0 0.00 0.00 0.00 93 1006.2
20260509082340 69 92 1.0 2.0 0.00 0.00 0.00 93 1006.4
20260509081837 69 92 1.0 2.0 0.00 0.00 0.00 93 1006.5
20260509081334 69 83 1.0 3.0 0.00 0.00 0.00 93 1006.4
20260509080832 69 85 1.0 1.0 0.00 0.00 0.00 92 1006.9
20260509080330 69 87 1.0 2.0 0.00 0.00 0.00 92 1007.0
20260509075828 69 81 0.0 2.0 0.00 0.00 0.00 92 1006.8
20260509075324 69 79 2.0 3.0 0.00 0.00 0.00 92 1007.3
20260509074822 69 88 1.0 2.0 0.00 0.00 0.00 91 1007.6
20260509074319 69 88 2.0 2.0 0.00 0.00 0.00 91 1008.0
20260509073815 69 82 1.0 1.0 0.00 0.00 0.00 91 1008.2
20260509073312 70 82 2.0 3.0 0.00 0.00 0.00 90 1008.3
20260509072808 70 92 2.0 2.0 0.00 0.00 0.00 90 1008.5
20260509072306 70 83 0.0 1.0 0.00 0.00 0.00 90 1008.6
20260509071802 70 61 1.0 1.0 0.00 0.00 0.00 90 1008.6
20260509071259 70 85 1.0 1.0 0.00 0.00 0.00 90 1008.6
20260509070756 70 74 0.0 0.0 0.00 0.00 0.00 90 1008.7
20260509070252 70 74 0.0 0.0 0.00 0.00 0.00 90 1008.7
20260509065749 70 74 0.0 0.0 0.00 0.00 0.00 90 1008.6
20260509065245 69 75 0.0 0.0 0.00 0.00 0.00 90 1009.0
20260509064741 70 74 0.0 0.0 0.00 0.00 0.00 89 1008.9
20260509064239 70 78 0.0 0.0 0.00 0.00 0.00 89 1008.9
20260509063736 70 65 0.0 1.0 0.00 0.00 0.00 89 1008.7
20260509063232 70 72 0.0 1.0 0.00 0.00 0.00 89 1008.3
20260509062730 70 84 0.0 0.0 0.00 0.00 0.00 89 1008.1
20260509062227 70 83 0.0 1.0 0.00 0.00 0.00 88 1008.0
20260509061724 70 88 0.0 1.0 0.00 0.00 0.00 88 1007.8
20260509061221 70 81 0.0 1.0 0.00 0.00 0.00 88 1007.8
20260509060719 70 83 0.0 1.0 0.00 0.00 0.00 88 1007.8
20260509060215 70 84 0.0 0.0 0.00 0.00 0.00 87 1007.7
20260509055711 70 100 0.0 1.0 0.00 0.00 0.00 87 1008.1
20260509055207 70 97 1.0 1.0 0.00 0.00 0.00 87 1008.4
20260509054703 70 94 1.0 1.0 0.00 0.00 0.00 87 1008.2
20260509054201 70 89 0.0 1.0 0.00 0.00 0.00 88 1008.6
20260509053659 70 85 0.0 0.0 0.00 0.00 0.00 88 1008.8
20260509053155 70 78 0.0 0.0 0.00 0.00 0.00 88 1009.0
20260509052654 70 89 0.0 0.0 0.00 0.00 0.00 88 1008.9
20260509052151 70 88 0.0 1.0 0.00 0.00 0.00 88 1009.1
20260509051649 70 71 0.0 0.0 0.00 0.00 0.00 88 1009.2
20260509051146 70 87 0.0 0.0 0.00 0.00 0.00 88 1008.8
20260509050643 70 86 0.0 0.0 0.00 0.00 0.00 88 1009.0
20260509050139 70 100 0.0 1.0 0.00 0.00 0.00 88 1009.5
20260509045637 70 72 0.0 0.0 0.00 1.16 1.16 87 1009.6
20260509045133 70 81 0.0 0.0 0.00 1.16 1.16 86 1009.4
20260509044631 70 72 0.0 0.0 0.00 1.16 1.16 86 1009.0
20260509044128 70 72 0.0 0.0 0.00 1.16 1.16 86 1008.6
20260509043624 71 75 0.0 1.0 0.00 1.16 1.16 86 1008.3
20260509043120 71 79 0.0 1.0 0.00 1.16 1.16 85 1008.2
20260509042617 71 84 0.0 1.0 0.00 1.16 1.16 85 1008.2
20260509042112 71 81 0.0 1.0 0.00 1.16 1.16 85 1008.3
20260509041610 71 74 0.0 2.0 0.00 1.16 1.16 85 1008.1
20260509041107 71 67 2.0 2.0 0.00 1.16 1.16 84 1007.7
20260509040606 71 83 1.0 3.0 0.00 1.16 1.16 84 1007.5
20260509035559 71 105 0.0 5.0 0.00 1.16 1.16 84 1008.0
20260509035055 71 83 1.0 3.0 0.00 1.16 1.16 84 1007.2
20260509034553 72 99 1.0 2.0 0.00 1.16 1.16 83 1007.4
20260509034050 72 102 2.0 3.0 0.00 1.16 1.16 82 1008.0
20260509033547 72 104 1.0 1.0 0.00 1.16 1.16 82 1008.7
20260509033044 72 79 0.0 0.0 0.00 1.16 1.16 82 1009.2
20260509032542 72 77 0.0 0.0 0.00 1.16 1.16 81 1009.2
20260509032038 72 77 0.0 0.0 0.00 1.16 1.16 81 1009.1
20260509031536 72 75 0.0 0.0 0.00 1.16 1.16 81 1008.6
20260509031033 72 75 0.0 0.0 0.00 1.16 1.16 81 1008.4
20260509030531 72 73 0.0 0.0 0.00 1.16 1.16 81 1008.6
20260509030028 71 81 0.0 0.0 0.00 1.16 1.16 81 1008.7
20260509025524 71 71 0.0 1.0 0.00 1.16 1.16 81 1008.4
20260509025020 71 78 0.0 0.0 0.00 1.16 1.16 81 1008.6
20260509024516 71 78 0.0 0.0 0.00 1.16 1.16 81 1008.5
20260509024012 71 76 0.0 0.0 0.00 1.16 1.16 81 1008.3
20260509023510 72 76 0.0 0.0 0.00 1.16 1.16 80 1008.3
20260509023006 72 65 1.0 1.0 0.00 1.16 1.16 80 1008.0
20260509022503 72 73 0.0 1.0 0.00 1.16 1.16 80 1007.8
20260509022001 72 89 1.0 2.0 0.00 1.16 1.16 80 1007.4
20260509021457 72 97 1.0 2.0 0.00 1.16 1.16 79 1007.0
20260509020954 72 134 2.0 3.0 0.00 1.16 1.16 79 1007.1
20260509020453 72 87 0.0 2.0 0.00 1.16 1.16 79 1007.1
20260509015949 72 94 1.0 2.0 0.00 1.16 1.16 79 1007.1
20260509015448 72 87 0.0 1.0 0.00 1.16 1.16 79 1007.1
20260509014945 72 102 0.0 1.0 0.00 1.16 1.16 78 1007.2
20260509014441 72 134 0.0 2.0 0.00 1.16 1.16 78 1007.0
20260509013938 72 108 1.0 1.0 0.00 1.16 1.16 78 1007.0
20260509013435 73 106 1.0 2.0 0.00 1.16 1.16 77 1006.6
20260509012931 73 87 1.0 2.0 0.00 1.16 1.16 77 1006.8
20260509012427 73 147 4.0 6.0 0.00 1.16 1.16 77 1006.9
20260509011924 73 88 0.0 1.0 0.00 1.16 1.16 76 1007.1
20260509011422 73 87 0.0 0.0 0.00 1.16 1.16 76 1006.8
20260509010920 73 94 1.0 2.0 0.00 1.16 1.16 76 1006.9
20260509010417 73 93 1.0 1.0 0.00 1.16 1.16 76 1006.9
20260509005913 73 86 0.0 1.0 0.00 1.16 1.16 76 1007.1
20260509005412 73 109 1.0 1.0 0.00 1.16 1.16 75 1006.9
20260509004911 73 82 1.0 3.0 0.00 1.16 1.16 75 1006.9
20260509004408 73 86 1.0 1.0 0.00 1.16 1.16 75 1006.6
20260509003906 74 97 0.0 1.0 0.00 1.16 1.16 75 1006.2
20260509003403 74 93 1.0 1.0 0.00 1.16 1.16 75 1006.5
20260509002900 74 96 2.0 2.0 0.00 1.16 1.16 74 1006.3
20260509002358 74 74 3.0 5.0 0.00 1.16 1.16 74 1006.2
20260509001855 74 93 0.0 1.0 0.00 1.16 1.16 74 1006.4
20260509001351 74 105 1.0 2.0 0.00 1.16 1.16 74 1006.4
20260509000848 74 83 0.0 2.0 0.00 1.16 1.16 74 1006.4
20260509000348 74 86 1.0 2.0 0.00 1.16 1.16 74 1006.4
20260508235842 74 87 1.0 3.0 0.00 1.16 1.16 73 1006.4
20260508235339 75 120 2.0 3.0 0.00 1.16 1.16 73 1006.5
20260508234836 75 120 2.0 3.0 0.00 1.16 1.16 72 1006.5
20260508234333 75 90 1.0 1.0 0.00 1.16 1.16 72 1006.7
20260508233831 76 100 2.0 3.0 0.00 1.16 1.16 71 1006.7
20260508233330 76 96 0.0 3.0 0.00 1.16 1.16 71 1006.6
20260508232827 76 79 1.0 2.0 0.00 1.16 1.16 71 1006.7
20260508232323 77 102 2.0 6.0 0.00 1.16 1.16 70 1006.8
20260508231822 77 95 1.0 2.0 0.00 1.16 1.16 71 1006.7
20260508231317 77 83 1.0 5.0 0.00 1.16 1.16 71 1006.6
20260508230814 77 103 1.0 3.0 0.00 1.16 1.16 71 1006.9
20260508230311 77 89 3.0 5.0 0.00 1.16 1.16 70 1006.8
20260508225809 77 90 0.0 3.0 0.00 1.16 1.16 70 1006.5
20260508225306 78 107 2.0 3.0 0.00 1.16 1.16 69 1006.9
20260508224803 78 116 3.0 5.0 0.00 1.16 1.16 69 1006.9
20260508224300 78 104 1.0 2.0 0.00 1.16 1.16 68 1007.1
20260508223758 79 83 0.0 2.0 0.00 1.16 1.16 67 1007.0
20260508223255 79 81 0.0 3.0 0.00 1.16 1.16 67 1006.7
20260508222752 79 131 3.0 3.0 0.00 1.16 1.16 65 1006.7
20260508222249 79 109 3.0 3.0 0.00 1.16 1.16 66 1006.9
20260508221746 80 113 1.0 2.0 0.00 1.16 1.16 64 1006.6
20260508221242 80 111 1.0 2.0 0.00 1.16 1.16 63 1006.9
20260508220738 80 92 0.0 2.0 0.00 1.16 1.16 64 1006.8
20260508220235 80 119 2.0 3.0 0.00 1.16 1.16 64 1006.8
20260508215731 80 137 4.0 5.0 0.00 1.16 1.16 64 1006.8
20260508215227 79 97 1.0 2.0 0.00 1.16 1.16 65 1006.6
20260508214725 79 133 1.0 5.0 0.00 1.16 1.16 65 1006.6
20260508214222 78 101 2.0 6.0 0.00 1.16 1.16 66 1006.6
20260508213718 78 128 1.0 2.0 0.00 1.16 1.16 65 1006.5
20260508213215 79 142 1.0 5.0 0.00 1.16 1.16 65 1006.6
20260508212712 79 97 1.0 1.0 0.00 1.16 1.16 64 1006.9
20260508212208 78 83 0.0 2.0 0.00 1.16 1.16 66 1006.6
20260508211704 79 108 5.0 7.0 0.00 1.16 1.16 64 1006.8
20260508211200 78 98 1.0 3.0 0.00 1.16 1.16 66 1007.2
20260508210657 79 95 3.0 6.0 0.00 1.16 1.16 64 1007.3
20260508210154 79 88 1.0 5.0 0.00 1.16 1.16 65 1007.6
20260508205651 78 130 1.0 3.0 0.00 1.16 1.16 64 1007.7
20260508205147 78 143 3.0 5.0 0.00 1.16 1.16 65 1007.7
20260508204644 78 101 1.0 5.0 0.00 1.16 1.16 66 1008.2
20260508204140 78 109 1.0 2.0 0.00 1.16 1.16 65 1008.3
20260508203636 79 82 0.0 2.0 0.00 1.16 1.16 65 1008.4
20260508203133 79 142 1.0 2.0 0.00 1.16 1.16 64 1008.4
20260508202629 79 75 0.0 5.0 0.00 1.16 1.16 64 1008.5
20260508202126 79 110 1.0 2.0 0.00 1.16 1.16 62 1008.6
20260508201623 79 71 0.0 1.0 0.00 1.16 1.16 64 1008.5
20260508201119 79 130 1.0 5.0 0.00 1.16 1.16 64 1008.5
20260508200616 79 74 1.0 2.0 0.00 1.16 1.16 63 1008.7
20260508200112 79 90 0.0 2.0 0.00 1.16 1.16 63 1008.4
20260508195609 79 95 1.0 3.0 0.00 1.16 1.16 62 1008.4
20260508195105 79 84 0.0 3.0 0.00 1.16 1.16 61 1008.6
20260508194602 79 151 2.0 3.0 0.00 1.16 1.16 61 1008.7
20260508194059 80 85 0.0 5.0 0.00 1.16 1.16 61 1008.7
20260508193555 79 73 2.0 3.0 0.00 1.16 1.16 61 1008.9
20260508193053 78 83 1.0 3.0 0.00 1.16 1.16 62 1008.8
20260508192549 79 81 1.0 3.0 0.00 1.16 1.16 62 1009.0
20260508192046 79 114 2.0 2.0 0.00 1.16 1.16 61 1008.7
20260508191543 78 107 2.0 3.0 0.00 1.16 1.16 60 1008.9
20260508191040 79 70 1.0 5.0 0.00 1.16 1.16 60 1009.2
20260508190537 79 76 0.0 2.0 0.00 1.16 1.16 60 1009.0
20260508190033 79 83 1.0 2.0 0.00 1.16 1.16 60 1009.1
20260508185531 79 79 0.0 3.0 0.00 1.16 1.16 62 1009.1
20260508185028 79 98 1.0 3.0 0.00 1.16 1.16 61 1009.2
20260508184526 78 67 2.0 2.0 0.00 1.16 1.16 59 1009.1
20260508184022 78 93 1.0 3.0 0.00 1.16 1.16 63 1009.2
20260508183519 77 86 1.0 2.0 0.00 1.16 1.16 62 1009.2
20260508183015 77 84 1.0 2.0 0.00 1.16 1.16 62 1009.4
20260508182511 77 58 2.0 3.0 0.00 1.16 1.16 62 1009.5
20260508182008 77 80 0.0 3.0 0.00 1.16 1.16 64 1009.7
20260508181503 78 85 0.0 5.0 0.00 1.16 1.16 62 1009.8
20260508181001 77 77 0.0 2.0 0.00 1.16 1.16 63 1009.9
20260508180458 77 81 0.0 2.0 0.00 1.16 1.16 63 1010.0
20260508175954 76 82 0.0 2.0 0.00 1.16 1.16 64 1010.0
20260508175450 75 85 0.0 2.0 0.00 1.16 1.16 64 1010.1
20260508174948 75 81 2.0 3.0 0.00 1.16 1.16 64 1010.2
20260508174445 75 81 0.0 2.0 0.00 1.16 1.16 64 1010.1
20260508173942 75 94 1.0 2.0 0.00 1.16 1.16 65 1010.2
20260508173439 75 77 0.0 1.0 0.00 1.16 1.16 65 1010.5
20260508172935 74 86 0.0 3.0 0.00 1.16 1.16 66 1010.7
20260508172433 74 96 1.0 1.0 0.00 1.16 1.16 67 1010.7
20260508171929 74 160 2.0 3.0 0.00 1.16 1.16 65 1010.6
20260508171425 73 115 3.0 5.0 0.00 1.16 1.16 66 1011.0
20260508170922 73 97 1.0 5.0 0.00 1.16 1.16 66 1011.1
20260508170419 73 90 2.0 5.0 0.00 1.16 1.16 68 1011.2
20260508165916 72 73 0.0 2.0 0.00 1.16 1.16 68 1011.4
20260508165414 72 79 0.0 2.0 0.00 1.16 1.16 68 1011.2
20260508164909 72 88 1.0 5.0 0.00 1.16 1.16 68 1011.3
20260508164407 72 90 0.0 2.0 0.00 1.16 1.16 69 1011.7
20260508163904 71 80 0.0 2.0 0.00 1.16 1.16 70 1011.6
20260508163402 70 134 1.0 2.0 0.00 1.16 1.16 72 1011.8
20260508162857 70 110 3.0 6.0 0.00 1.16 1.16 72 1011.9
20260508162355 69 107 1.0 7.0 0.00 1.16 1.16 74 1011.8
20260508161851 69 98 1.0 2.0 0.00 1.16 1.16 74 1012.1
20260508161349 68 87 1.0 3.0 0.00 1.16 1.16 74 1012.0
20260508160846 68 86 0.0 2.0 0.00 1.16 1.16 75 1011.9
20260508160345 68 124 1.0 5.0 0.00 1.16 1.16 75 1012.1
20260508155840 67 114 2.0 7.0 0.00 1.16 1.16 75 1011.9
20260508155338 67 135 1.0 2.0 0.00 1.16 1.16 80 1012.2
20260508154835 65 99 1.0 2.0 0.00 1.16 1.16 82 1012.1
20260508154332 64 80 0.0 3.0 0.00 1.16 1.16 85 1012.5
20260508153828 64 85 0.0 1.0 0.00 1.16 1.16 88 1012.4
20260508153326 63 77 1.0 2.0 0.00 1.16 1.16 91 1012.2
20260508152822 63 95 1.0 3.0 0.00 1.16 1.16 93 1012.1
20260508152319 63 113 2.0 2.0 0.00 1.16 1.16 95 1012.3
20260508151815 63 84 0.0 0.0 0.00 1.16 1.16 96 1012.3
20260508151312 63 82 1.0 2.0 0.00 1.16 1.16 96 1012.1
20260508150808 62 86 0.0 2.0 0.00 1.16 1.16 97 1012.6
20260508150305 62 85 0.0 0.0 0.00 1.16 1.16 97 1012.5
20260508145802 62 83 0.0 0.0 0.00 1.16 1.16 97 1012.5
20260508145257 62 99 0.0 1.0 0.00 1.16 1.16 97 1012.4
20260508144754 62 82 0.0 1.0 0.00 1.16 1.16 97 1012.5
20260508144252 62 77 0.0 2.0 0.00 1.16 1.16 97 1012.7
20260508143749 63 82 0.0 0.0 0.00 1.16 1.16 97 1012.7
20260508143246 61 84 0.0 1.0 0.00 1.16 1.16 97 1012.6
20260508142743 62 83 0.0 1.0 0.00 1.16 1.16 97 1012.6
20260508142240 63 69 0.0 1.0 0.00 1.16 1.16 97 1012.7